Probability
26 97 100 100 100 94 87 68 55 48 94 97 100 100 100 100 100 100 100 100 100 100 100 100 100 100 100 100 100 100 100 100 100 100 100 100 100 100 100 100 61 68 100
23 97 100 100 100 97 94 90 81 61 94 100 100 100 100 100 100 100 100 100 100 100 100 100 100 100 100 100 100 100 100 100 100 100 100 100 100 100 100 100 61 61 87
52 97 100 100 100 100 97 97 90 84 100 100 100 100 100 100 100 100 100 100 100 100 100 100 100 100 100 100 100 100 100 100 100 100 100 74 97 100 100 100 100 100 94
65 84 97 100 100 100 100 97 97 97 97 100 100 100 100 100 100 100 100 100 94 94 100 100 100 100 100 100 100 100 100 100 100 100 100 94 94 100 100 100 100 100 100
32 58 100 100 100 100 100 100 100 100 100 100 100 100 100 100 100 97 94 94 87 71 94 100 100 100 100 100 100 100 100 100 100 100 100 100 84 100 100 100 100 100 100
19 81 100 100 100 100 100 100 100 100 100 100 100 100 100 100 100 100 97 100 100 97 84 94 100 97 97 97 100 100 100 100 100 100 100 100 58 100 100 100 100 100 100
19 97 100 100 100 100 100 100 100 100 100 100 100 100 100 100 100 100 100 100 100 100 97 84 90 94 100 97 97 100 100 97 97 97 77 71 74 100 100 100 100 100 100
58 100 100 100 100 100 100 100 100 100 100 100 100 100 100 100 100 100 100 100 100 97 90 87 90 100 100 100 100 100 100 100 90 94 97 84 94 100 100 100 100 100 100
87 100 100 100 100 100 100 100 100 100 100 100 100 100 100 100 100 100 100 100 100 100 100 100 87 84 100 100 100 100 100 100 100 94 84 39 100 100 100 100 100 100 100
94 97 100 100 100 100 100 100 100 100 100 100 100 100 100 100 100 100 100 100 100 100 100 100 100 100 100 100 100 100 100 100 100 77 42 10 87 100 100 100 100 100 100
97 94 84 77 84 100 100 100 100 100 100 100 100 100 100 100 100 100 100 100 100 100 100 100 100 100 100 100 100 100 100 97 55 23 0 0 74 100 100 100 100 100 100
84 71 55 26 29 39 94 100 100 100 100 100 90 100 100 65 48 100 100 100 100 100 100 100 100 100 100 100 100 100 100 52 29 0 0 6 97 100 100 100 100 100 100
35 42 16 6 3 3 6 13 19 19 45 42 29 35 45 45 35 77 26 90 100 100 100 100 100 100 90 68 39 16 19 16 3 0 0 6 97 100 100 100 100 100 100
10 16 13 0 0 0 0 0 0 0 6 13 19 32 29 26 26 13 10 6 23 45 65 19 19 32 39 3 3 0 0 0 0 0 0 32 100 100 100 100 100 100 100
3 3 3 0 0 0 0 0 0 0 3 16 48 71 71 26 3 0 0 0 0 0 0 3 0 0 3 0 0 0 0 0 0 0 0 6 100 100 100 100 100 100 100
0 0 0 0 0 0 0 3 0 0 3 3 3 23 23 3 0 0 0 0 0 0 0 0 0 0 0 0 0 0 0 0 0 0 0 0 100 100 100 100 100 100 100
0 0 0 0 0 0 6 6 0 0 0 0 0 0 0 0 0 0 0 0 0 0 0 0 0 0 0 0 0 0 0 0 0 0 0 0 0 65 100 100 100 100 100
3 0 3 6 19 26 55 45 13 0 0 3 0 0 6 3 0 0 0 0 0 0 0 0 0 0 0 0 0 0 0 0 0 0 0 0 0 0 23 100 100 100 100
16 16 19 48 100 97 94 68 39 23 16 10 26 32 45 58 16 0 0 0 0 0 0 0 0 0 0 0 0 0 0 0 0 0 0 0 0 0 0 0 94 97 100
23 39 39 45 81 100 94 74 42 39 55 55 48 52 45 35 39 0 0 0 0 0 0 0 0 0 0 0 0 0 0 0 0 0 0 0 0 0 0 0 0 3 87
77 52 65 74 90 94 87 87 61 52 52 87 71 48 16 3 10 3 0 0 0 0 0 0 0 0 0 0 0 0 0 0 0 0 0 0 0 0 0 0 0 0 0
94 87 94 97 90 61 48 45 61 74 77 65 35 0 0 0 0 0 0 0 0 0 0 0 0 0 0 0 0 0 0 0 0 0 0 0 0 0 0 0 0 0 0
87 87 84 81 65 42 26 26 26 29 23 10 0 0 0 0 0 0 0 0 0 0 0 0 0 0 0 0 0 0 0 0 0 0 0 0 0 0 0 0 0 0 0
26 23 23 16 26 19 10 10 3 6 0 0 0 0 0 0 0 0 0 0 0 0 0 0 0 0 0 0 0 0 0 0 0 0 0 0 0 0 0 0 0 0 0
0 0 3 3 6 3 0 0 0 0 0 0 0 0 0 0 0 0 0 0 0 0 0 0 0 0 0 0 0 0 0 0 0 0 0 0 0 0 0 0 0 0 0
0 0 0 0 3 0 0 0 0 0 0 0 0 0 0 0 0 0 0 0 0 0 0 0 0 0 0 0 0 0 0 0 0 0 0 0 0 0 0 0 0 0 0
Height
5925 5925 5925 5925 5925 5925 5926 5926 5926 5926 5926 5926 5926 5926 5926 5926 5925 5923 5923 5922 5920 5918 5917 5916 5914 5913 5911 5910 5909 5908 5907 5906 5905 5904 5903 5902 5901 5901 5900 5900 5899 5898 5897
5928 5928 5928 5929 5928 5928 5929 5929 5929 5929 5928 5927 5927 5928 5928 5928 5927 5925 5924 5923 5921 5920 5918 5917 5916 5914 5913 5911 5910 5909 5908 5907 5906 5904 5903 5902 5902 5901 5901 5900 5900 5898 5898
5930 5930 5931 5931 5931 5931 5931 5932 5932 5931 5931 5930 5929 5929 5929 5929 5928 5927 5926 5924 5922 5920 5919 5918 5916 5915 5914 5912 5911 5910 5909 5908 5907 5906 5904 5903 5903 5902 5902 5901 5900 5899 5898
5932 5932 5932 5933 5933 5933 5934 5934 5934 5934 5933 5932 5932 5931 5930 5930 5929 5928 5927 5925 5923 5921 5920 5918 5917 5916 5914 5913 5912 5911 5910 5909 5908 5907 5906 5904 5903 5902 5901 5901 5900 5899 5898
5934 5934 5933 5934 5934 5935 5935 5936 5936 5936 5935 5935 5934 5933 5932 5931 5931 5929 5928 5927 5925 5922 5921 5919 5917 5915 5914 5913 5912 5911 5910 5909 5908 5907 5906 5905 5903 5902 5901 5900 5899 5899 5898
5935 5935 5935 5935 5935 5936 5937 5937 5937 5937 5937 5936 5935 5934 5933 5932 5931 5930 5929 5928 5926 5924 5921 5920 5918 5916 5914 5912 5911 5911 5910 5909 5908 5907 5906 5905 5904 5902 5901 5899 5898 5898 5897
5936 5937 5937 5936 5936 5936 5937 5938 5938 5938 5937 5937 5936 5935 5934 5933 5932 5931 5929 5928 5926 5924 5922 5920 5918 5916 5914 5912 5911 5910 5909 5908 5907 5907 5905 5904 5903 5902 5900 5899 5898 5897 5896
5936 5936 5936 5937 5937 5937 5937 5937 5937 5937 5937 5936 5935 5934 5933 5932 5931 5929 5928 5927 5925 5923 5921 5919 5918 5916 5914 5912 5911 5910 5909 5908 5907 5906 5904 5903 5902 5901 5899 5898 5897 5896 5895
5935 5935 5936 5936 5937 5937 5937 5936 5935 5935 5935 5935 5934 5933 5932 5930 5929 5927 5926 5924 5923 5921 5919 5917 5916 5915 5913 5912 5910 5909 5908 5907 5906 5905 5903 5901 5900 5899 5898 5897 5895 5894 5893
5934 5934 5935 5935 5936 5935 5935 5934 5934 5933 5933 5933 5932 5931 5930 5929 5927 5925 5923 5922 5920 5919 5917 5915 5913 5912 5911 5909 5908 5907 5906 5906 5905 5903 5901 5900 5899 5898 5896 5895 5893 5892 5890
5933 5933 5934 5934 5934 5933 5933 5933 5932 5931 5930 5929 5929 5928 5928 5926 5924 5922 5921 5919 5918 5916 5914 5912 5910 5908 5907 5906 5905 5904 5903 5903 5902 5901 5900 5899 5898 5896 5895 5893 5891 5889 5887
5931 5932 5932 5932 5932 5932 5931 5931 5930 5929 5927 5926 5925 5925 5924 5923 5921 5919 5918 5917 5916 5914 5912 5910 5907 5904 5903 5902 5902 5901 5900 5900 5899 5898 5898 5898 5897 5895 5893 5891 5889 5887 5886
5929 5930 5930 5930 5930 5929 5929 5928 5927 5926 5925 5924 5922 5921 5920 5919 5918 5916 5915 5914 5912 5911 5908 5906 5903 5901 5899 5898 5897 5897 5897 5897 5896 5896 5895 5895 5895 5893 5891 5889 5887 5886 5884
5926 5927 5928 5928 5927 5927 5925 5924 5923 5922 5922 5921 5920 5919 5917 5916 5914 5913 5911 5910 5908 5907 5905 5902 5899 5897 5895 5894 5892 5892 5892 5892 5892 5892 5891 5891 5891 5890 5888 5886 5884 5883 5881
5925 5925 5925 5925 5924 5924 5922 5921 5920 5919 5918 5917 5916 5915 5914 5913 5911 5910 5909 5907 5905 5903 5900 5898 5895 5892 5891 5889 5888 5887 5887 5887 5887 5888 5887 5887 5887 5887 5885 5882 5881 5879 5878
5922 5922 5921 5920 5920 5919 5918 5917 5916 5915 5915 5914 5913 5912 5911 5910 5909 5907 5905 5904 5901 5899 5897 5895 5892 5888 5886 5885 5884 5883 5882 5882 5882 5883 5883 5882 5882 5882 5881 5879 5877 5875 5874
5917 5917 5917 5916 5915 5914 5913 5911 5910 5910 5910 5909 5908 5908 5907 5905 5904 5902 5900 5899 5897 5895 5893 5891 5889 5885 5883 5881 5880 5878 5877 5877 5877 5878 5878 5877 5877 5876 5876 5875 5873 5871 5870
5912 5912 5911 5911 5910 5909 5907 5905 5904 5903 5902 5902 5902 5901 5900 5899 5898 5896 5894 5893 5891 5890 5888 5886 5884 5881 5879 5877 5876 5874 5873 5872 5872 5872 5872 5872 5871 5870 5870 5870 5868 5866 5865
5905 5905 5905 5904 5903 5902 5901 5899 5898 5897 5896 5895 5895 5894 5893 5892 5891 5889 5888 5886 5884 5883 5881 5879 5878 5876 5875 5873 5871 5869 5868 5867 5867 5866 5866 5865 5864 5864 5863 5863 5862 5861 5860
5896 5897 5897 5896 5896 5894 5893 5892 5892 5891 5890 5889 5888 5887 5886 5886 5885 5883 5881 5879 5877 5876 5874 5872 5871 5869 5868 5866 5865 5864 5862 5862 5861 5860 5860 5859 5858 5857 5857 5857 5856 5856 5855
5888 5888 5888 5887 5886 5886 5886 5885 5884 5883 5882 5882 5881 5880 5880 5879 5877 5876 5874 5871 5869 5868 5867 5865 5864 5862 5861 5859 5859 5857 5856 5855 5854 5854 5853 5853 5852 5851 5850 5850 5850 5850 5850
5878 5878 5877 5877 5877 5877 5877 5876 5876 5875 5875 5874 5873 5872 5871 5870 5869 5868 5866 5864 5861 5859 5858 5857 5855 5855 5853 5852 5851 5850 5849 5848 5847 5847 5846 5845 5845 5844 5844 5843 5843 5844 5844
5867 5867 5866 5865 5865 5866 5866 5867 5867 5867 5867 5866 5864 5863 5862 5861 5860 5860 5858 5856 5853 5850 5848 5846 5845 5845 5844 5843 5842 5841 5840 5840 5839 5839 5838 5838 5837 5837 5837 5837 5837 5837 5837
5856 5855 5854 5854 5855 5856 5856 5857 5858 5858 5857 5856 5855 5854 5853 5852 5850 5849 5847 5846 5844 5841 5838 5836 5835 5834 5833 5833 5832 5832 5832 5831 5830 5830 5830 5829 5829 5830 5830 5830 5830 5830 5830
5845 5845 5845 5846 5846 5846 5846 5847 5848 5848 5847 5847 5846 5845 5844 5842 5841 5839 5836 5835 5833 5830 5828 5826 5824 5822 5822 5822 5822 5822 5822 5821 5820 5820 5820 5820 5821 5821 5821 5822 5822 5822 5823
5834 5835 5835 5835 5836 5836 5837 5837 5838 5838 5838 5838 5837 5836 5835 5833 5831 5829 5827 5824 5821 5819 5817 5815 5813 5812 5811 5811 5812 5811 5811 5811 5811 5810 5811 5811 5812 5813 5813 5814 5814 5814 5815
Wind_Speed
17 18 18 18 19 20 19 19 18 16 16 17 16 16 15 15 15 17 17 17 18 19 19 18 17 17 16 15 14 13 12 11 11 10 10 11 10 10 10 9 7 3 2
16 16 16 17 17 17 17 15 14 13 13 14 14 14 14 15 15 15 15 16 17 17 17 17 17 16 15 14 14 13 12 12 12 12 11 11 11 11 10 9 7 6 2
14 14 14 14 14 14 13 12 11 11 11 12 13 12 12 12 12 13 13 14 15 16 16 15 15 14 14 13 13 12 12 11 10 10 10 10 11 11 11 10 7 5 3
11 12 12 11 12 12 11 11 11 11 11 11 11 9 8 9 9 9 10 12 13 14 15 15 14 13 12 12 12 11 11 10 9 8 8 9 8 9 10 10 9 6 3
8 9 9 10 10 10 10 10 10 10 10 10 9 7 7 8 10 9 9 11 13 14 15 15 14 13 11 11 11 11 10 8 7 7 8 8 7 7 8 9 9 8 5
5 5 6 7 7 8 8 8 8 8 8 8 8 7 8 11 12 12 11 12 14 15 16 16 15 13 11 11 11 10 10 8 7 6 6 7 7 7 9 10 10 9 8
1 1 2 3 4 4 5 6 6 7 7 7 8 9 11 12 14 15 14 14 16 17 18 18 17 15 13 11 11 10 10 9 7 6 6 6 8 9 9 10 10 10 9
6 5 4 3 1 0 1 3 4 5 6 7 8 9 10 11 13 14 15 15 17 18 19 19 19 17 16 13 12 10 9 10 9 7 7 8 8 9 9 10 10 9 8
9 9 8 6 5 4 3 3 4 3 3 5 7 8 8 8 9 10 11 13 14 15 17 18 19 18 17 16 14 12 11 10 10 9 9 10 10 9 9 11 12 12 11
10 10 10 9 8 7 6 6 6 4 3 5 7 9 10 10 10 12 13 14 14 14 16 17 18 19 18 17 15 14 12 11 10 10 9 10 11 11 11 13 13 13 12
11 11 11 12 11 9 8 8 8 8 8 9 11 12 14 15 13 13 15 15 15 16 18 18 17 17 18 17 16 15 14 12 11 11 10 11 12 13 14 15 15 14 13
12 12 12 12 11 10 10 10 12 13 14 15 16 16 16 16 14 15 16 18 20 20 20 20 19 17 16 17 19 17 15 14 12 12 12 13 15 15 16 18 17 15 14
12 12 12 13 13 14 14 15 16 17 18 18 18 17 15 13 14 17 19 20 22 23 23 22 22 21 17 16 18 18 17 15 14 14 14 15 17 17 18 19 18 16 15
12 11 12 13 13 13 15 16 17 18 18 18 17 15 14 13 15 18 22 23 25 27 27 26 25 24 21 18 18 18 17 17 16 16 15 15 17 19 19 19 18 17 16
14 14 15 15 14 14 15 15 16 17 16 15 16 15 15 15 17 20 23 26 28 29 29 28 27 24 22 20 19 18 18 19 19 18 17 16 18 20 21 20 19 18 16
21 21 20 19 19 19 20 20 20 19 17 17 16 16 16 16 18 21 24 27 29 29 28 26 25 24 22 21 20 20 20 21 22 20 19 19 19 20 21 21 19 17 15
26 25 25 23 23 23 23 24 25 24 23 22 20 19 20 21 22 24 26 28 31 31 29 27 26 25 22 21 22 22 22 22 23 22 22 22 21 21 22 23 21 17 15
29 29 29 28 27 26 27 27 28 29 29 27 26 25 25 27 28 29 30 32 34 35 33 31 29 27 24 22 23 24 24 25 25 25 26 26 24 24 24 25 24 21 18
35 33 32 31 30 30 31 32 32 32 32 32 31 31 30 30 32 34 36 36 38 37 35 33 32 30 28 26 25 24 25 26 26 27 29 29 27 27 27 26 25 23 22
36 34 34 35 35 35 36 36 37 37 37 36 36 36 35 34 35 38 40 41 41 40 37 35 34 32 30 29 26 25 26 26 27 27 28 29 30 30 29 27 26 25 23
31 34 37 40 41 40 40 40 40 40 41 41 41 40 39 38 40 42 44 45 45 43 40 37 35 33 31 30 28 27 27 27 28 29 29 31 32 31 31 28 27 26 23
39 41 44 46 46 44 44 43 42 42 43 45 46 44 43 43 44 45 46 48 48 47 43 41 38 36 35 33 31 31 31 31 31 32 33 33 32 31 30 29 29 27 25
42 43 44 46 47 47 46 45 44 43 44 46 47 46 46 46 46 47 47 47 47 47 47 46 44 41 40 38 35 33 33 34 34 34 35 34 32 31 30 29 30 30 27
38 39 41 44 46 47 47 46 45 45 45 46 45 45 45 46 48 48 47 46 46 47 48 49 48 46 44 41 39 36 35 35 36 35 36 34 32 32 33 33 32 31 29
36 37 39 40 42 43 44 44 43 42 42 42 42 43 44 46 46 46 46 46 47 47 48 49 49 47 44 42 40 38 36 36 36 35 35 34 33 33 35 35 34 32 29
40 40 41 39 39 40 41 41 41 41 41 41 41 42 43 44 45 46 47 47 47 46 47 48 47 44 41 38 37 35 34 35 35 35 35 34 34 33 30 30 31 32 30
Wind_Direction
88 87 92 92 91 88 84 79 72 68 68 64 58 51 45 45 44 40 33 29 30 31 32 36 39 39 39 40 43 43 41 40 36 35 32 32 38 40 40 50 49 76 120
89 86 86 88 88 86 80 72 65 64 65 62 56 49 45 47 46 38 30 26 26 25 26 29 34 34 33 34 38 41 42 46 45 43 37 32 34 37 40 43 44 56 75
96 93 87 85 85 83 79 70 61 58 57 55 53 51 49 50 47 40 30 26 24 20 17 17 23 28 28 28 31 36 41 45 45 45 40 33 29 27 29 29 30 33 34
101 100 96 89 85 81 76 71 61 54 51 50 52 57 54 43 32 25 20 18 16 13 11 9 9 15 20 21 23 28 35 41 38 34 35 34 29 19 18 17 14 11 359
104 105 106 101 93 85 78 72 63 54 52 54 53 50 39 22 10 4 360 2 360 358 359 1 3 4 8 10 13 15 20 29 29 24 21 21 27 19 14 13 13 14 4
105 111 113 106 100 91 80 72 65 55 48 45 42 29 14 6 2 358 353 352 352 349 348 349 353 354 354 357 359 3 4 8 13 14 10 1 2 4 5 11 16 19 19
29 65 107 107 106 97 81 66 59 48 36 32 28 19 12 8 4 2 358 349 344 342 340 340 342 344 345 345 345 348 352 357 358 358 353 346 348 342 349 1 13 18 17
284 286 278 262 243 283 43 29 24 24 21 24 27 24 22 21 19 15 9 358 345 335 331 330 332 333 335 336 337 337 339 344 344 336 328 328 340 341 338 337 342 346 344
287 286 277 268 273 286 301 315 319 340 11 14 16 14 13 14 6 358 357 355 347 337 327 320 320 322 322 324 328 332 335 337 334 331 320 321 335 336 329 327 330 325 317
287 290 284 273 272 286 298 295 287 289 310 328 337 336 335 330 330 330 334 337 338 337 330 319 312 311 310 311 314 319 322 326 322 318 313 315 324 328 328 328 328 322 314
283 289 291 282 274 280 289 289 287 291 294 302 314 317 319 316 313 320 323 327 331 330 325 317 310 306 304 301 301 307 311 312 311 305 302 302 307 316 320 322 323 322 319
280 285 284 279 272 275 280 283 286 291 294 298 302 307 309 306 307 318 322 329 335 335 329 318 307 303 301 297 294 297 302 304 301 293 293 297 298 302 309 313 315 316 316
271 276 274 272 269 273 275 275 279 283 288 294 301 307 303 300 308 318 323 331 335 335 333 325 308 300 297 294 291 291 292 296 300 290 286 292 294 294 298 305 307 308 309
269 269 269 270 270 274 276 276 278 279 283 291 300 307 304 304 311 315 318 325 328 330 328 326 314 298 290 287 288 288 286 291 295 288 279 286 293 292 291 299 305 306 305
271 273 276 278 279 284 288 290 289 287 292 302 306 305 305 308 308 309 313 318 322 324 324 322 319 302 285 278 280 282 283 286 289 288 280 281 286 288 290 297 303 306 306
276 278 282 284 283 285 289 293 292 291 294 296 298 299 302 305 304 303 307 314 319 322 319 317 321 313 290 276 274 274 274 277 282 286 283 282 283 284 288 292 295 301 304
274 277 280 284 286 287 287 288 290 289 289 290 290 296 303 307 307 307 307 311 315 317 315 311 313 318 300 279 272 270 268 270 276 282 284 284 283 281 282 285 286 290 295
270 273 276 279 282 284 285 285 287 288 289 289 290 292 298 304 307 308 308 309 313 314 311 307 305 310 306 285 275 271 268 268 272 277 282 286 286 285 284 283 284 286 287
266 265 269 274 278 281 283 286 287 286 286 287 289 290 293 298 300 302 305 308 311 310 307 302 301 299 301 290 278 271 268 270 273 277 281 284 284 283 282 280 280 283 284
260 258 267 272 274 277 280 283 285 286 285 286 286 286 289 292 292 295 299 303 306 306 303 298 297 295 293 291 283 274 271 272 275 277 278 281 281 280 280 278 276 277 280
255 260 267 268 269 272 276 278 279 281 283 284 284 285 287 288 288 290 293 296 299 301 299 296 293 292 289 285 282 278 274 275 276 275 277 280 279 277 276 274 272 272 275
260 262 262 264 265 269 272 272 273 275 278 281 282 284 284 285 286 288 289 292 294 296 295 293 290 287 286 283 280 278 277 276 276 273 274 277 277 273 271 268 267 269 272
260 260 258 259 261 264 266 268 270 272 275 278 279 280 281 283 283 284 285 288 290 291 291 291 290 287 283 280 278 276 276 275 275 272 270 271 272 271 268 262 263 267 270
264 263 262 262 264 266 267 268 271 273 276 277 278 279 280 281 283 285 286 287 287 287 287 287 287 285 282 278 276 274 274 274 272 270 265 265 266 267 265 260 262 266 268
269 270 270 269 268 267 268 271 274 275 276 278 279 281 282 284 285 287 288 289 287 285 284 284 283 282 280 277 275 272 268 269 270 267 259 259 262 264 264 259 260 262 263
273 272 270 273 270 268 269 272 276 278 278 279 281 282 284 285 286 288 289 289 288 286 283 282 281 279 277 274 273 269 265 264 267 265 257 257 258 261 260 256 255 258 260